CDT,Max TemperatureF,Mean TemperatureF,Min TemperatureF,Max Dew PointF,MeanDew PointF,Min DewpointF,Max Humidity, Mean Humidity, Min Humidity, Max Sea Level PressureIn, Mean Sea Level PressureIn, Min Sea Level PressureIn, Max VisibilityMiles, Mean VisibilityMiles, Min VisibilityMiles, Max Wind SpeedMPH, Mean Wind SpeedMPH, Max Gust SpeedMPH,PrecipitationIn, CloudCover, Events, WindDirDegrees
2013-8-1,88,76,66,69,67,65,93,71,51,30.12,30.04,29.94,10,10,6,6,1,,0.00,0,,125
2013-8-2,90,81,73,79,72,67,94,79,61,29.96,29.89,29.83,10,10,8,10,4,18,0.02,2,Rain-Thunderstorm,170
2013-8-3,90,81,73,76,73,71,93,79,59,30.07,29.99,29.87,10,10,7,9,3,17,0.20,2,Rain,157
2013-8-4,78,74,71,73,71,70,100,92,84,30.14,30.08,29.99,10,6,0,15,3,23,3.15,7,Fog-Rain-Thunderstorm,171
2013-8-5,91,82,73,80,73,68,94,85,61,30.05,29.95,29.80,10,7,1,13,5,25,2.18,5,Rain-Thunderstorm,167
2013-8-6,91,80,71,79,73,69,94,86,63,29.97,29.87,29.76,10,8,0,33,11,51,1.40,4,Fog-Rain-Thunderstorm,154
2013-8-7,88,80,73,75,73,71,94,85,70,29.93,29.88,29.79,10,8,1,33,7,53,0.58,3,Rain-Thunderstorm,296
2013-8-8,82,75,69,73,71,66,94,88,72,30.01,29.92,29.83,10,6,1,18,3,25,0.22,5,Rain-Thunderstorm,95
2013-8-9,77,70,66,72,68,62,94,88,68,30.10,30.00,29.89,10,8,3,12,4,17,0.35,6,Rain-Thunderstorm,36
2013-8-10,86,75,66,68,66,64,94,80,55,30.16,30.12,30.06,10,6,1,8,4,,0.00,0,,21
2013-8-11,88,78,69,75,70,66,93,77,57,30.13,30.07,30.01,10,10,8,5,1,,0.00,2,,206
2013-8-12,84,77,72,73,71,66,93,84,65,30.08,30.01,29.95,10,9,4,9,1,,0.00,3,Rain,240
2013-8-13,82,76,70,72,68,61,94,77,52,30.09,30.03,29.99,10,10,9,7,2,,0.00,1,,32
2013-8-14,82,72,63,63,61,59,90,72,48,30.17,30.11,30.06,10,10,10,6,1,,0.00,1,,130
2013-8-15,82,70,60,65,60,57,90,72,50,30.12,30.08,30.01,10,10,10,7,2,,0.00,1,Rain-Thunderstorm,155
2013-8-16,81,72,62,62,61,59,93,73,50,30.15,30.09,30.04,10,10,7,6,2,,0.00,2,Rain,84
2013-8-17,80,68,57,62,58,56,93,72,45,30.18,30.14,30.08,10,9,5,5,1,,0.00,1,,-1
2013-8-18,84,72,61,66,62,58,93,74,49,30.16,30.11,30.05,10,9,5,7,1,,0.00,0,,128
2013-8-19,86,73,62,70,64,60,94,76,51,30.12,30.06,30.00,10,8,2,8,2,,0.00,1,,181
2013-8-20,88,75,63,69,65,61,93,71,46,30.08,30.04,30.00,10,9,6,10,2,17,0.00,0,,174
2013-8-21,91,78,64,72,67,62,90,71,45,30.09,30.05,30.01,10,10,8,10,2,,0.00,0,,194
2013-8-22,91,80,68,70,67,64,93,71,45,30.10,30.05,30.00,10,10,7,9,2,,0.00,0,,189
2013-8-23,91,81,71,72,70,67,90,70,50,30.08,30.02,29.98,10,10,7,7,2,,0.00,1,,119
2013-8-24,91,82,72,73,70,69,91,69,50,30.13,30.08,30.03,10,10,10,9,3,,0.00,0,,154
2013-8-25,93,82,72,73,70,68,88,71,48,30.19,30.14,30.11,10,10,6,9,3,,0.00,0,,174
2013-8-26,91,82,72,72,70,68,91,70,47,30.19,30.13,30.08,10,10,10,10,4,16,0.00,0,,183
2013-8-27,91,80,69,69,67,63,87,69,39,30.11,30.06,30.01,10,10,10,12,3,16,0.00,0,,198
2013-8-28,93,80,66,73,69,66,97,71,42,30.06,30.02,30.00,10,10,7,12,3,16,0.00,0,,193
2013-8-29,97,84,73,74,70,68,87,67,40,30.05,30.00,29.96,10,10,10,8,2,,0.00,2,,184
2013-8-30,99,84,71,73,70,67,93,67,36,29.98,29.92,29.85,10,10,10,9,2,,0.00,0,,198
2013-8-31,99,86,73,75,70,68,90,67,39,29.87,29.82,29.77,10,10,9,9,2,,0.00,1,,192